Regional Weather Roundup
Issued by NWS Bismarck, ND

Home | Current Version | Previous Version | Text Only | Print | Product List | Glossary On
Versions: 1 2 3 4 5 6 7 8 9 10 11 12 13 14 15 16 17 18 19 20 21 22 23 24 25 26 27 28 29 30 31 32 33 34 35 36 37 38 39 40 41 42 43 44 45 46 47 48 49 50
000
ASUS43 KBIS 180810
RWRBIS

NWR BROADCAST TEXT
NATIONAL WEATHER SERVICE BISMARCK ND
200 AM CST THU JAN 18 2018

NOTE: "FAIR" INDICATES FEW OR NO CLOUDS BELOW 12,000 FEET WITH NO
SIGNIFICANT WEATHER AND/OR OBSTRUCTIONS TO VISIBILITY.


CITY           SKY/WX    TMP DP  RH WIND       PRES   REMARKS
WILLISTON      FAIR      15  12  88 S5        29.87F WCI   8
MINOT          FAIR      27  18  69 SW14      29.82S WCI  16
MINOT AFB      CLOUDY    24  17  75 W16       29.80F WCI  11
BISMARCK       FAIR      26  19  74 SW5       29.92F
DICKINSON      FAIR      22  16  78 SW5       29.86F WCI  16
GARRISON         N/A     23  17  78 W14       29.84F WCI  11
HETTINGER ARPT MOCLDY    23  17  78 W3        29.93F
JAMESTOWN      FAIR      32  23  69 W12       29.85S
CARRINGTON     FAIR      28  21  74 W17       29.85S WCI  16
HAZEN          FAIR      21  18  86 SW5       29.90F WCI  15
LINTON           N/A     23  18  80 CALM      29.95F
MANDAN         FAIR      27  19  74 SW6       29.90F WCI  20
OAKES            N/A     30  23  74 SW14G20   29.92F WCI  20
RUGBY          FAIR      25  19  80 W16       29.79F WCI  12
STANLEY        FAIR      25  19  80 W12       29.85F WCI  14
TIOGA          FAIR      23  19  86 W12       29.84F WCI  12
WATFORD CITY   FAIR      25  18  74 CALM      29.86F
$$

CITY           SKY/WX    TMP DP  RH WIND       PRES   REMARKS
GRAND FORKS    FAIR      36  25  64 W16       29.76R
GRAND FORKS AF MOCLDY    36  23  59 W21       29.76S
DEVILS LAKE    FAIR      26  20  77 W16       29.79F WCI  14
FARGO          FAIR      34  24  67 SW18      29.83F
CANDO          FAIR      25  19  80 W14       29.80R WCI  13
CAVALIER         N/A     37  28  70 W26       29.69F
GRAFTON        FAIR      36  25  64 W21       29.75S
GWINNER          N/A     30  23  74 SW15      29.90F WCI  19
LANGDON        CLOUDY    28  27  93 W22       29.72S WCI  15
ROLLA          FAIR      30  19  64 W16       29.75S WCI  19
WALHALLA       FAIR      34  34 100 N12G20    29.72R
$$

CITY           SKY/WX    TMP DP  RH WIND       PRES   REMARKS
ABERDEEN       MOCLDY    18  16  92 S8        29.98F WCI   8
MOBRIDGE       MOCLDY    27  21  78 SE8       29.93F WCI  19
BUFFALO          N/A     35  23  61 W16       29.87F
RAPID CITY     MOCLDY    29  17  61 CALM      29.98F
GLASGOW        CLOUDY    17  13  84 SE8       29.85F WCI   7
SIDNEY         CLEAR     15  11  83 SW6       29.89F WCI   6
WOLF POINT     MOCLDY     7   2  80 SW5       29.88F WCI  -2
GLENDIVE       MOCLDY    20  15  81 SE6       29.90F WCI  12
MILES CITY     CLOUDY    21  16  81 S9        29.93F WCI  11
BAKER          PTCLDY    34  23  64 W13       29.91F
$$

CITY           SKY/WX    TMP DP  RH WIND       PRES   REMARKS
BILLINGS       CLOUDY    42  23  46 W25       29.95F
GREAT FALLS    CLOUDY    43  25  49 S24G32    29.86F
REGINA         PTCLDY    19  14  79 W7        29.76F WCI  10
ESTEVAN        PTCLDY    16  12  86 SW12      29.80F WCI   3
$$





USA.gov is the U.S. government's official web portal to all federal, state and local government web resources and services.